PRIVATE WETTERSTATION BILLIGHEIM-ALLFELD                       ZURCK
Wetterdaten: Mittwoch, 23.07.2014
Datum Zeit Temp. A. Temp. A. min Temp. A. max Feuchte A. Luftdruck Regen Wind Richtung Richtung Sonnenschein ET Solar Taupunkt Windchill Windben Empfang
23.07.2014 00:00 18,2 C 18,2 C 18,4 C 85 % 1015,0 hPa 0,0 l/m 0,0 km/h (0 Bft) N 0 0 min 0,025 mm 0 W/m 15,6 C 18,2 C 0,0 km/h (0 Bft) 100 %
23.07.2014 00:10 18,1 C 18,1 C 18,2 C 86 % 1015,0 hPa 0,0 l/m 0,0 km/h (0 Bft) N 0 0 min 0,000 mm 0 W/m 15,7 C 18,1 C 0,0 km/h (0 Bft) 100 %
23.07.2014 00:20 17,9 C 17,9 C 18,1 C 86 % 1014,8 hPa 0,0 l/m 0,0 km/h (0 Bft) N 0 0 min 0,000 mm 0 W/m 15,5 C 17,9 C 0,0 km/h (0 Bft) 100 %
23.07.2014 00:30 17,8 C 17,8 C 17,9 C 86 % 1014,9 hPa 0,0 l/m 0,0 km/h (0 Bft) N 0 0 min 0,000 mm 0 W/m 15,4 C 17,8 C 0,0 km/h (0 Bft) 100 %
23.07.2014 00:40 17,7 C 17,7 C 17,8 C 86 % 1014,8 hPa 0,0 l/m 0,0 km/h (0 Bft) N 0 0 min 0,000 mm 0 W/m 15,3 C 17,7 C 0,0 km/h (0 Bft) 100 %
23.07.2014 00:50 17,6 C 17,6 C 17,7 C 86 % 1014,8 hPa 0,0 l/m 0,0 km/h (0 Bft) N 0 0 min 0,000 mm 0 W/m 15,2 C 17,6 C 0,0 km/h (0 Bft) 100 %
23.07.2014 01:00 17,6 C 17,6 C 17,6 C 86 % 1014,9 hPa 0,0 l/m 0,0 km/h (0 Bft) N 0 0 min 0,000 mm 0 W/m 15,2 C 17,6 C 0,0 km/h (0 Bft) 100 %
23.07.2014 01:10 17,4 C 17,4 C 17,5 C 86 % 1014,8 hPa 0,0 l/m 0,0 km/h (0 Bft) N 0 0 min 0,000 mm 0 W/m 15,0 C 17,4 C 0,0 km/h (0 Bft) 100 %
23.07.2014 01:20 17,4 C 17,4 C 17,4 C 86 % 1014,7 hPa 0,0 l/m 0,0 km/h (0 Bft) N 0 0 min 0,000 mm 0 W/m 15,0 C 17,4 C 0,0 km/h (0 Bft) 100 %
23.07.2014 01:30 17,3 C 17,3 C 17,4 C 86 % 1014,6 hPa 0,0 l/m 0,0 km/h (0 Bft) N 0 0 min 0,000 mm 0 W/m 14,9 C 17,3 C 0,0 km/h (0 Bft) 100 %
23.07.2014 01:40 17,2 C 17,2 C 17,3 C 87 % 1014,6 hPa 0,0 l/m 0,0 km/h (0 Bft) N 0 0 min 0,000 mm 0 W/m 15,0 C 17,2 C 0,0 km/h (0 Bft) 100 %
23.07.2014 01:50 17,0 C 17,0 C 17,2 C 86 % 1014,5 hPa 0,0 l/m 0,0 km/h (0 Bft) N 0 0 min 0,000 mm 0 W/m 14,6 C 17,0 C 0,0 km/h (0 Bft) 100 %
23.07.2014 02:00 16,9 C 16,9 C 17,0 C 86 % 1014,6 hPa 0,0 l/m 0,0 km/h (0 Bft) N 0 0 min 0,000 mm 0 W/m 14,5 C 16,9 C 0,0 km/h (0 Bft) 100 %
23.07.2014 02:10 16,8 C 16,8 C 16,9 C 87 % 1014,5 hPa 0,0 l/m 0,0 km/h (0 Bft) N 0 0 min 0,000 mm 0 W/m 14,6 C 16,8 C 0,0 km/h (0 Bft) 100 %
23.07.2014 02:20 16,7 C 16,7 C 16,8 C 87 % 1014,6 hPa 0,0 l/m 0,0 km/h (0 Bft) N 0 0 min 0,000 mm 0 W/m 14,5 C 16,7 C 0,0 km/h (0 Bft) 100 %
23.07.2014 02:30 16,7 C 16,7 C 16,7 C 87 % 1014,6 hPa 0,0 l/m 0,0 km/h (0 Bft) N 0 0 min 0,000 mm 0 W/m 14,5 C 16,7 C 0,0 km/h (0 Bft) 100 %
23.07.2014 02:40 16,6 C 16,6 C 16,7 C 87 % 1014,6 hPa 0,0 l/m 0,0 km/h (0 Bft) N 0 0 min 0,000 mm 0 W/m 14,4 C 16,6 C 0,0 km/h (0 Bft) 100 %
23.07.2014 02:50 16,6 C 16,6 C 16,7 C 87 % 1014,6 hPa 0,0 l/m 0,0 km/h (0 Bft) N 0 0 min 0,000 mm 0 W/m 14,4 C 16,6 C 0,0 km/h (0 Bft) 100 %
23.07.2014 03:00 16,6 C 16,6 C 16,6 C 87 % 1014,5 hPa 0,0 l/m 0,0 km/h (0 Bft) N 0 0 min 0,000 mm 0 W/m 14,4 C 16,6 C 0,0 km/h (0 Bft) 100 %
23.07.2014 03:10 16,5 C 16,5 C 16,6 C 87 % 1014,5 hPa 0,0 l/m 0,0 km/h (0 Bft) N 0 0 min 0,000 mm 0 W/m 14,3 C 16,5 C 0,0 km/h (0 Bft) 100 %
23.07.2014 03:20 16,4 C 16,4 C 16,5 C 87 % 1014,5 hPa 0,0 l/m 0,0 km/h (0 Bft) N 0 0 min 0,000 mm 0 W/m 14,2 C 16,4 C 0,0 km/h (0 Bft) 100 %
23.07.2014 03:30 16,4 C 16,4 C 16,4 C 87 % 1014,4 hPa 0,0 l/m 0,0 km/h (0 Bft) N 0 0 min 0,000 mm 0 W/m 14,2 C 16,4 C 0,0 km/h (0 Bft) 100 %
23.07.2014 03:40 16,3 C 16,3 C 16,4 C 87 % 1014,5 hPa 0,0 l/m 0,0 km/h (0 Bft) N 0 0 min 0,000 mm 0 W/m 14,1 C 16,3 C 0,0 km/h (0 Bft) 100 %
23.07.2014 03:50 16,2 C 16,2 C 16,3 C 87 % 1014,5 hPa 0,0 l/m 0,0 km/h (0 Bft) N 0 0 min 0,000 mm 0 W/m 14,0 C 16,2 C 0,0 km/h (0 Bft) 100 %
23.07.2014 04:00 16,2 C 16,2 C 16,2 C 87 % 1014,4 hPa 0,0 l/m 0,0 km/h (0 Bft) N 0 0 min 0,000 mm 0 W/m 14,0 C 16,2 C 0,0 km/h (0 Bft) 91 %
23.07.2014 04:10 16,1 C 16,1 C 16,2 C 87 % 1014,4 hPa 0,0 l/m 0,0 km/h (0 Bft) N 0 0 min 0,000 mm 0 W/m 13,9 C 16,1 C 0,0 km/h (0 Bft) 100 %
23.07.2014 04:20 16,0 C 16,0 C 16,1 C 87 % 1014,4 hPa 0,0 l/m 0,0 km/h (0 Bft) N 0 0 min 0,000 mm 0 W/m 13,8 C 16,0 C 0,0 km/h (0 Bft) 100 %
23.07.2014 04:30 15,9 C 15,9 C 16,0 C 87 % 1014,3 hPa 0,0 l/m 0,0 km/h (0 Bft) N 0 0 min 0,000 mm 0 W/m 13,7 C 15,9 C 0,0 km/h (0 Bft) 100 %
23.07.2014 04:40 15,8 C 15,8 C 15,9 C 87 % 1014,4 hPa 0,0 l/m 0,0 km/h (0 Bft) N 0 0 min 0,000 mm 0 W/m 13,6 C 15,8 C 0,0 km/h (0 Bft) 100 %
23.07.2014 04:50 15,7 C 15,7 C 15,8 C 87 % 1014,5 hPa 0,0 l/m 0,0 km/h (0 Bft) N 0 0 min 0,000 mm 0 W/m 13,5 C 15,7 C 0,0 km/h (0 Bft) 100 %
23.07.2014 05:00 15,7 C 15,7 C 15,7 C 87 % 1014,5 hPa 0,0 l/m 0,0 km/h (0 Bft) N 0 0 min 0,000 mm 0 W/m 13,5 C 15,7 C 0,0 km/h (0 Bft) 100 %
23.07.2014 05:10 15,6 C 15,6 C 15,7 C 87 % 1014,5 hPa 0,0 l/m 0,0 km/h (0 Bft) N 0 0 min 0,000 mm 0 W/m 13,4 C 15,6 C 0,0 km/h (0 Bft) 100 %
23.07.2014 05:20 15,6 C 15,6 C 15,7 C 87 % 1014,5 hPa 0,0 l/m 0,0 km/h (0 Bft) N 0 0 min 0,000 mm 0 W/m 13,4 C 15,6 C 0,0 km/h (0 Bft) 100 %
23.07.2014 05:30 15,5 C 15,5 C 15,6 C 87 % 1014,6 hPa 0,0 l/m 0,0 km/h (0 Bft) N 0 0 min 0,000 mm 0 W/m 13,3 C 15,5 C 0,0 km/h (0 Bft) 100 %
23.07.2014 05:40 15,5 C 15,5 C 15,6 C 87 % 1014,6 hPa 0,0 l/m 0,0 km/h (0 Bft) N 0 0 min 0,000 mm 0 W/m 13,3 C 15,5 C 0,0 km/h (0 Bft) 100 %
23.07.2014 05:50 15,5 C 15,5 C 15,5 C 87 % 1014,6 hPa 0,0 l/m 0,0 km/h (0 Bft) N 0 0 min 0,000 mm 5 W/m 13,3 C 15,5 C 0,0 km/h (0 Bft) 100 %
23.07.2014 06:00 15,5 C 15,5 C 15,5 C 87 % 1014,7 hPa 0,0 l/m 0,0 km/h (0 Bft) N 0 0 min 0,000 mm 11 W/m 13,3 C 15,5 C 0,0 km/h (0 Bft) 100 %
23.07.2014 06:10 15,6 C 15,5 C 15,6 C 87 % 1014,6 hPa 0,0 l/m 0,0 km/h (0 Bft) N 0 0 min 0,000 mm 18 W/m 13,4 C 15,6 C 0,0 km/h (0 Bft) 100 %
23.07.2014 06:20 15,6 C 15,6 C 15,6 C 87 % 1014,7 hPa 0,0 l/m 0,0 km/h (0 Bft) N 0 0 min 0,000 mm 23 W/m 13,4 C 15,6 C 0,0 km/h (0 Bft) 100 %
23.07.2014 06:30 15,7 C 15,6 C 15,7 C 87 % 1014,6 hPa 0,0 l/m 0,0 km/h (0 Bft) N 0 0 min 0,000 mm 26 W/m 13,5 C 15,7 C 0,0 km/h (0 Bft) 100 %
23.07.2014 06:40 15,8 C 15,7 C 15,8 C 87 % 1014,6 hPa 0,0 l/m 0,0 km/h (0 Bft) N 0 0 min 0,000 mm 33 W/m 13,6 C 15,8 C 0,0 km/h (0 Bft) 100 %
23.07.2014 06:50 16,0 C 15,8 C 16,0 C 87 % 1014,7 hPa 0,0 l/m 0,0 km/h (0 Bft) N 0 0 min 0,000 mm 42 W/m 13,8 C 16,0 C 0,0 km/h (0 Bft) 99 %
23.07.2014 07:00 16,2 C 16,0 C 16,2 C 87 % 1014,7 hPa 0,0 l/m 0,0 km/h (0 Bft) N 0 0 min 0,025 mm 42 W/m 14,0 C 16,2 C 0,0 km/h (0 Bft) 100 %
23.07.2014 07:10 16,4 C 16,2 C 16,4 C 87 % 1014,8 hPa 0,0 l/m 0,0 km/h (0 Bft) N 0 0 min 0,000 mm 39 W/m 14,2 C 16,4 C 0,0 km/h (0 Bft) 100 %
23.07.2014 07:20 16,6 C 16,4 C 16,6 C 87 % 1014,8 hPa 0,0 l/m 0,0 km/h (0 Bft) N 0 0 min 0,000 mm 39 W/m 14,4 C 16,6 C 0,0 km/h (0 Bft) 100 %
23.07.2014 07:30 16,7 C 16,6 C 16,7 C 86 % 1014,8 hPa 0,0 l/m 0,0 km/h (0 Bft) N 0 0 min 0,000 mm 37 W/m 14,3 C 16,7 C 0,0 km/h (0 Bft) 100 %
23.07.2014 07:40 17,0 C 16,7 C 17,0 C 86 % 1014,8 hPa 0,0 l/m 0,0 km/h (0 Bft) S-SW 202 0 min 0,000 mm 37 W/m 14,6 C 17,0 C 4,8 km/h (1 Bft) 100 %
23.07.2014 07:50 17,3 C 17,0 C 17,3 C 85 % 1014,7 hPa 0,0 l/m 0,0 km/h (0 Bft) S-SW 202 0 min 0,000 mm 42 W/m 14,8 C 17,3 C 1,6 km/h (1 Bft) 100 %
23.07.2014 08:00 17,6 C 17,3 C 17,6 C 84 % 1014,6 hPa 0,0 l/m 0,0 km/h (0 Bft) S-SW 202 0 min 0,025 mm 53 W/m 14,9 C 17,6 C 4,8 km/h (1 Bft) 100 %
23.07.2014 08:10 17,9 C 17,6 C 17,9 C 84 % 1014,7 hPa 0,0 l/m 0,0 km/h (0 Bft) S-SW 202 0 min 0,000 mm 53 W/m 15,2 C 17,9 C 1,6 km/h (1 Bft) 100 %
23.07.2014 08:20 18,3 C 17,9 C 18,3 C 82 % 1014,7 hPa 0,0 l/m 0,0 km/h (0 Bft) S-SW 202 0 min 0,000 mm 114 W/m 15,2 C 18,3 C 1,6 km/h (1 Bft) 100 %
23.07.2014 08:30 18,9 C 17,9 C 18,9 C 82 % 1014,8 hPa 0,0 l/m 0,3 km/h (0 Bft) SW 233 10 min 0,000 mm 343 W/m 15,8 C 18,9 C 4,8 km/h (1 Bft) 100 %
23.07.2014 08:40 19,8 C 18,9 C 19,8 C 78 % 1014,9 hPa 0,0 l/m 0,2 km/h (0 Bft) S-SW 205 10 min 0,000 mm 374 W/m 15,8 C 19,8 C 4,8 km/h (1 Bft) 100 %
23.07.2014 08:50 20,6 C 19,8 C 20,6 C 76 % 1014,9 hPa 0,0 l/m 0,1 km/h (0 Bft) NW 311 10 min 0,000 mm 413 W/m 16,2 C 20,6 C 3,2 km/h (1 Bft) 100 %
23.07.2014 09:00 21,4 C 20,6 C 21,4 C 75 % 1014,9 hPa 0,0 l/m 0,4 km/h (0 Bft) W 259 10 min 0,128 mm 276 W/m 16,8 C 21,4 C 6,4 km/h (2 Bft) 100 %
23.07.2014 09:10 21,9 C 21,4 C 21,9 C 73 % 1014,9 hPa 0,0 l/m 0,4 km/h (0 Bft) SW 225 10 min 0,000 mm 494 W/m 16,8 C 21,9 C 3,2 km/h (1 Bft) 99 %
23.07.2014 09:20 22,4 C 21,9 C 22,4 C 69 % 1014,6 hPa 0,0 l/m 0,2 km/h (0 Bft) SO 130 10 min 0,000 mm 506 W/m 16,4 C 22,4 C 3,2 km/h (1 Bft) 100 %
23.07.2014 09:30 23,1 C 22,4 C 23,1 C 68 % 1014,7 hPa 0,0 l/m 0,1 km/h (0 Bft) S-SW 194 10 min 0,000 mm 524 W/m 16,9 C 23,1 C 3,2 km/h (1 Bft) 100 %
23.07.2014 09:40 23,4 C 23,1 C 23,4 C 68 % 1014,8 hPa 0,0 l/m 0,1 km/h (0 Bft) O-SO 111 10 min 0,000 mm 547 W/m 17,1 C 23,4 C 3,2 km/h (1 Bft) 100 %
23.07.2014 09:50 23,9 C 23,4 C 23,9 C 67 % 1014,7 hPa 0,0 l/m 0,5 km/h (0 Bft) W-SW 238 10 min 0,000 mm 578 W/m 17,4 C 23,9 C 9,7 km/h (2 Bft) 100 %
23.07.2014 10:00 24,1 C 23,9 C 24,1 C 66 % 1014,7 hPa 0,0 l/m 1,1 km/h (1 Bft) O-NO 75 10 min 0,305 mm 617 W/m 17,3 C 24,1 C 9,7 km/h (2 Bft) 100 %
23.07.2014 10:10 24,3 C 24,1 C 24,3 C 63 % 1014,7 hPa 0,0 l/m 0,5 km/h (0 Bft) N-NW 331 10 min 0,000 mm 673 W/m 16,8 C 24,3 C 8,0 km/h (2 Bft) 100 %
23.07.2014 10:20 24,7 C 24,3 C 24,7 C 65 % 1014,7 hPa 0,0 l/m 0,4 km/h (0 Bft) N-NO 27 10 min 0,000 mm 659 W/m 17,7 C 24,7 C 8,0 km/h (2 Bft) 100 %
23.07.2014 10:30 24,9 C 24,7 C 24,9 C 63 % 1014,7 hPa 0,0 l/m 1,7 km/h (1 Bft) O 92 10 min 0,000 mm 613 W/m 17,4 C 24,9 C 9,7 km/h (2 Bft) 100 %
23.07.2014 10:40 24,9 C 24,9 C 24,9 C 65 % 1014,8 hPa 0,0 l/m 0,8 km/h (0 Bft) NW 318 10 min 0,000 mm 708 W/m 17,9 C 24,9 C 6,4 km/h (2 Bft) 100 %
23.07.2014 10:50 25,2 C 24,9 C 25,2 C 62 % 1014,7 hPa 0,0 l/m 0,9 km/h (0 Bft) SO 137 10 min 0,000 mm 802 W/m 17,4 C 25,2 C 9,7 km/h (2 Bft) 100 %
23.07.2014 11:00 25,5 C 25,2 C 25,5 C 63 % 1014,6 hPa 0,0 l/m 2,5 km/h (1 Bft) N-NO 32 10 min 0,432 mm 635 W/m 17,9 C 25,5 C 16,1 km/h (3 Bft) 100 %
23.07.2014 11:10 25,4 C 25,4 C 25,6 C 62 % 1014,7 hPa 0,0 l/m 0,5 km/h (0 Bft) NO 49 10 min 0,000 mm 297 W/m 17,6 C 25,4 C 8,0 km/h (2 Bft) 100 %
23.07.2014 11:20 25,1 C 25,1 C 25,4 C 65 % 1014,7 hPa 0,0 l/m 0,6 km/h (0 Bft) N 355 10 min 0,000 mm 396 W/m 18,0 C 25,1 C 6,4 km/h (2 Bft) 100 %
23.07.2014 11:30 25,1 C 24,9 C 25,1 C 64 % 1014,7 hPa 0,0 l/m 0,4 km/h (0 Bft) O-SO 107 10 min 0,000 mm 524 W/m 17,8 C 25,1 C 6,4 km/h (2 Bft) 100 %
23.07.2014 11:40 25,2 C 25,1 C 25,2 C 62 % 1014,6 hPa 0,0 l/m 0,5 km/h (0 Bft) O-SO 111 10 min 0,000 mm 504 W/m 17,4 C 25,2 C 6,4 km/h (2 Bft) 100 %
23.07.2014 11:50 25,3 C 25,2 C 25,3 C 58 % 1014,6 hPa 0,0 l/m 1,2 km/h (1 Bft) SO 138 10 min 0,000 mm 686 W/m 16,4 C 25,3 C 9,7 km/h (2 Bft) 100 %
23.07.2014 12:00 25,6 C 25,3 C 25,6 C 61 % 1014,6 hPa 0,0 l/m 1,3 km/h (1 Bft) W-NW 292 10 min 0,330 mm 751 W/m 17,5 C 25,6 C 11,3 km/h (2 Bft) 100 %
23.07.2014 12:10 25,8 C 25,6 C 25,8 C 60 % 1014,5 hPa 0,0 l/m 0,7 km/h (0 Bft) N-NO 30 10 min 0,000 mm 621 W/m 17,4 C 25,8 C 4,8 km/h (1 Bft) 100 %
23.07.2014 12:20 26,0 C 25,8 C 26,0 C 60 % 1014,3 hPa 0,0 l/m 0,9 km/h (0 Bft) SW 228 10 min 0,000 mm 749 W/m 17,6 C 26,0 C 9,7 km/h (2 Bft) 100 %
23.07.2014 12:30 26,1 C 26,0 C 26,1 C 57 % 1014,3 hPa 0,0 l/m 1,0 km/h (0 Bft) W 268 10 min 0,000 mm 575 W/m 16,9 C 26,1 C 14,5 km/h (3 Bft) 100 %
23.07.2014 12:40 26,2 C 26,1 C 26,3 C 54 % 1014,3 hPa 0,0 l/m 1,7 km/h (1 Bft) N-NW 348 10 min 0,000 mm 810 W/m 16,1 C 26,2 C 11,3 km/h (2 Bft) 100 %
23.07.2014 12:50 26,6 C 26,2 C 26,6 C 58 % 1014,1 hPa 0,0 l/m 2,0 km/h (1 Bft) N 355 10 min 0,000 mm 554 W/m 17,6 C 26,6 C 12,9 km/h (3 Bft) 100 %
23.07.2014 13:00 26,7 C 26,6 C 26,7 C 58 % 1014,1 hPa 0,0 l/m 0,4 km/h (0 Bft) S-SW 199 10 min 0,432 mm 684 W/m 17,7 C 26,7 C 9,7 km/h (2 Bft) 100 %
23.07.2014 13:10 26,8 C 26,7 C 26,8 C 57 % 1013,9 hPa 0,0 l/m 1,0 km/h (0 Bft) O-SO 102 10 min 0,000 mm 858 W/m 17,6 C 26,8 C 9,7 km/h (2 Bft) 100 %
23.07.2014 13:20 26,9 C 26,8 C 26,9 C 57 % 1013,9 hPa 0,0 l/m 0,4 km/h (0 Bft) NO 41 10 min 0,000 mm 227 W/m 17,6 C 26,9 C 8,0 km/h (2 Bft) 100 %
23.07.2014 13:30 26,6 C 26,6 C 26,9 C 56 % 1013,9 hPa 0,0 l/m 1,0 km/h (0 Bft) W 274 10 min 0,000 mm 214 W/m 17,1 C 26,6 C 9,7 km/h (2 Bft) 98 %
23.07.2014 13:40 26,7 C 26,5 C 26,7 C 59 % 1013,8 hPa 0,0 l/m 0,7 km/h (0 Bft) S-SO 148 10 min 0,000 mm 230 W/m 18,0 C 26,7 C 8,0 km/h (2 Bft) 97 %
23.07.2014 13:50 26,1 C 26,1 C 26,7 C 54 % 1013,7 hPa 0,0 l/m 1,8 km/h (1 Bft) S-SW 213 0 min 0,000 mm 105 W/m 16,0 C 26,1 C 11,3 km/h (2 Bft) 97 %
23.07.2014 14:00 25,7 C 25,6 C 26,1 C 54 % 1013,8 hPa 0,0 l/m 0,9 km/h (0 Bft) O 83 10 min 0,330 mm 197 W/m 15,7 C 25,7 C 17,7 km/h (3 Bft) 97 %
23.07.2014 14:10 26,0 C 25,6 C 26,0 C 54 % 1013,7 hPa 0,0 l/m 1,5 km/h (1 Bft) SO 136 10 min 0,000 mm 877 W/m 16,0 C 26,0 C 11,3 km/h (2 Bft) 97 %
23.07.2014 14:20 26,6 C 26,0 C 26,6 C 49 % 1013,7 hPa 0,0 l/m 2,6 km/h (1 Bft) N 355 10 min 0,000 mm 909 W/m 15,0 C 26,6 C 14,5 km/h (3 Bft) 98 %
23.07.2014 14:30 26,9 C 26,6 C 26,9 C 50 % 1013,6 hPa 0,0 l/m 1,8 km/h (1 Bft) SO 125 10 min 0,000 mm 847 W/m 15,6 C 26,9 C 9,7 km/h (2 Bft) 97 %
23.07.2014 14:40 27,4 C 26,9 C 27,4 C 47 % 1013,4 hPa 0,0 l/m 3,2 km/h (1 Bft) W-NW 284 10 min 0,000 mm 830 W/m 15,1 C 27,4 C 14,5 km/h (3 Bft) 98 %
23.07.2014 14:50 27,8 C 27,4 C 27,8 C 54 % 1013,4 hPa 0,0 l/m 0,6 km/h (0 Bft) O-SO 109 10 min 0,000 mm 817 W/m 17,6 C 27,8 C 8,0 km/h (2 Bft) 97 %
23.07.2014 15:00 28,0 C 27,8 C 28,0 C 50 % 1013,3 hPa 0,0 l/m 1,2 km/h (1 Bft) O 89 10 min 0,508 mm 795 W/m 16,6 C 28,0 C 11,3 km/h (2 Bft) 97 %
23.07.2014 15:10 27,9 C 27,9 C 28,0 C 46 % 1013,3 hPa 0,0 l/m 2,0 km/h (1 Bft) W-SW 240 10 min 0,000 mm 784 W/m 15,2 C 27,9 C 11,3 km/h (2 Bft) 97 %
23.07.2014 15:20 28,0 C 27,9 C 28,0 C 49 % 1013,1 hPa 0,0 l/m 1,9 km/h (1 Bft) O-NO 74 10 min 0,000 mm 768 W/m 16,3 C 28,0 C 16,1 km/h (3 Bft) 97 %
23.07.2014 15:30 28,2 C 28,0 C 28,2 C 44 % 1013,0 hPa 0,0 l/m 2,0 km/h (1 Bft) O-NO 77 10 min 0,000 mm 770 W/m 14,8 C 28,2 C 20,9 km/h (4 Bft) 97 %
23.07.2014 15:40 28,6 C 28,2 C 28,6 C 44 % 1012,8 hPa 0,0 l/m 2,2 km/h (1 Bft) SO 133 10 min 0,000 mm 752 W/m 15,1 C 28,6 C 16,1 km/h (3 Bft) 97 %
23.07.2014 15:50 28,7 C 28,6 C 28,7 C 44 % 1012,8 hPa 0,0 l/m 2,2 km/h (1 Bft) O-SO 103 10 min 0,000 mm 756 W/m 15,2 C 28,7 C 20,9 km/h (4 Bft) 98 %
23.07.2014 16:00 28,6 C 28,6 C 28,7 C 47 % 1012,7 hPa 0,0 l/m 2,0 km/h (1 Bft) S 170 10 min 0,508 mm 710 W/m 16,2 C 28,6 C 22,5 km/h (4 Bft) 97 %
23.07.2014 16:10 28,6 C 28,6 C 28,6 C 41 % 1012,8 hPa 0,0 l/m 1,8 km/h (1 Bft) O-NO 63 10 min 0,000 mm 728 W/m 14,0 C 28,6 C 11,3 km/h (2 Bft) 97 %
23.07.2014 16:20 28,5 C 28,5 C 28,7 C 46 % 1012,7 hPa 0,0 l/m 1,2 km/h (1 Bft) N-NO 22 0 min 0,000 mm 90 W/m 15,7 C 28,5 C 11,3 km/h (2 Bft) 98 %
23.07.2014 16:30 28,2 C 28,2 C 28,5 C 47 % 1012,6 hPa 0,0 l/m 0,5 km/h (0 Bft) N-NO 25 10 min 0,000 mm 636 W/m 15,8 C 28,2 C 4,8 km/h (1 Bft) 97 %
23.07.2014 16:40 28,2 C 28,1 C 28,2 C 47 % 1012,5 hPa 0,0 l/m 0,6 km/h (0 Bft) NO 53 10 min 0,000 mm 659 W/m 15,8 C 28,2 C 9,7 km/h (2 Bft) 98 %
23.07.2014 16:50 28,2 C 28,2 C 28,3 C 48 % 1012,6 hPa 0,0 l/m 2,0 km/h (1 Bft) NO 41 10 min 0,000 mm 592 W/m 16,1 C 28,2 C 11,3 km/h (2 Bft) 98 %
23.07.2014 17:00 27,7 C 27,7 C 28,2 C 48 % 1012,5 hPa 0,0 l/m 0,9 km/h (0 Bft) N 5 10 min 0,381 mm 239 W/m 15,7 C 27,7 C 8,0 km/h (2 Bft) 99 %
23.07.2014 17:10 27,4 C 27,4 C 27,7 C 46 % 1012,4 hPa 0,0 l/m 2,6 km/h (1 Bft) NO 42 0 min 0,000 mm 90 W/m 14,7 C 27,4 C 17,7 km/h (3 Bft) 99 %
23.07.2014 17:20 27,5 C 27,4 C 27,5 C 48 % 1012,3 hPa 0,0 l/m 0,4 km/h (0 Bft) SW 235 0 min 0,000 mm 83 W/m 15,5 C 27,5 C 4,8 km/h (1 Bft) 98 %
23.07.2014 17:30 27,6 C 27,5 C 27,6 C 50 % 1012,2 hPa 0,0 l/m 0,4 km/h (0 Bft) SO 144 10 min 0,000 mm 325 W/m 16,2 C 27,6 C 9,7 km/h (2 Bft) 98 %
23.07.2014 17:40 27,7 C 27,6 C 27,7 C 47 % 1012,1 hPa 0,0 l/m 0,6 km/h (0 Bft) N 5 0 min 0,000 mm 91 W/m 15,3 C 27,7 C 6,4 km/h (2 Bft) 97 %
23.07.2014 17:50 27,7 C 27,7 C 27,8 C 47 % 1012,1 hPa 0,0 l/m 1,7 km/h (1 Bft) O-SO 117 0 min 0,000 mm 148 W/m 15,3 C 27,7 C 11,3 km/h (2 Bft) 98 %
23.07.2014 18:00 27,6 C 27,6 C 27,7 C 47 % 1012,1 hPa 0,0 l/m 1,5 km/h (1 Bft) O-NO 69 0 min 0,102 mm 105 W/m 15,3 C 27,6 C 11,3 km/h (2 Bft) 97 %
23.07.2014 18:10 27,4 C 27,4 C 27,6 C 47 % 1012,0 hPa 0,0 l/m 2,0 km/h (1 Bft) N-NO 33 10 min 0,000 mm 153 W/m 15,1 C 27,4 C 11,3 km/h (2 Bft) 98 %
23.07.2014 18:20 27,2 C 27,2 C 27,4 C 45 % 1012,0 hPa 0,0 l/m 1,2 km/h (1 Bft) O 85 0 min 0,000 mm 100 W/m 14,2 C 27,2 C 11,3 km/h (2 Bft) 97 %
23.07.2014 18:30 27,1 C 27,1 C 27,2 C 46 % 1012,2 hPa 0,0 l/m 2,1 km/h (1 Bft) O-SO 107 0 min 0,000 mm 139 W/m 14,5 C 27,1 C 17,7 km/h (3 Bft) 98 %
23.07.2014 18:40 26,8 C 26,8 C 27,1 C 49 % 1012,3 hPa 0,0 l/m 0,8 km/h (0 Bft) O-NO 70 0 min 0,000 mm 116 W/m 15,2 C 26,8 C 9,7 km/h (2 Bft) 97 %
23.07.2014 18:50 26,5 C 26,5 C 26,8 C 51 % 1012,2 hPa 0,0 l/m 0,5 km/h (0 Bft) NO 44 0 min 0,000 mm 88 W/m 15,5 C 26,5 C 11,3 km/h (2 Bft) 97 %
23.07.2014 19:00 26,2 C 26,2 C 26,5 C 52 % 1012,1 hPa 0,0 l/m 0,9 km/h (0 Bft) NO 34 10 min 0,101 mm 283 W/m 15,6 C 26,2 C 9,7 km/h (2 Bft) 97 %
23.07.2014 19:10 26,1 C 26,1 C 26,2 C 55 % 1012,0 hPa 0,0 l/m 0,4 km/h (0 Bft) W 278 10 min 0,000 mm 276 W/m 16,3 C 26,1 C 6,4 km/h (2 Bft) 97 %
23.07.2014 19:20 26,0 C 26,0 C 26,1 C 50 % 1012,1 hPa 0,0 l/m 0,5 km/h (0 Bft) O 93 0 min 0,000 mm 130 W/m 14,8 C 26,0 C 9,7 km/h (2 Bft) 98 %
23.07.2014 19:30 26,0 C 26,0 C 26,0 C 53 % 1012,0 hPa 0,0 l/m 0,5 km/h (0 Bft) O-SO 109 0 min 0,000 mm 123 W/m 15,7 C 26,0 C 9,7 km/h (2 Bft) 97 %
23.07.2014 19:40 25,8 C 25,8 C 26,0 C 53 % 1012,1 hPa 0,0 l/m 0,7 km/h (0 Bft) NO 37 0 min 0,000 mm 120 W/m 15,5 C 25,8 C 9,7 km/h (2 Bft) 98 %
23.07.2014 19:50 25,6 C 25,6 C 25,8 C 51 % 1012,1 hPa 0,0 l/m 0,4 km/h (0 Bft) NO 51 0 min 0,000 mm 104 W/m 14,7 C 25,6 C 8,0 km/h (2 Bft) 97 %
23.07.2014 20:00 25,4 C 25,4 C 25,6 C 53 % 1012,1 hPa 0,0 l/m 0,2 km/h (0 Bft) N-NO 16 0 min 0,102 mm 79 W/m 15,1 C 25,4 C 6,4 km/h (2 Bft) 97 %
23.07.2014 20:10 25,2 C 25,2 C 25,4 C 53 % 1012,0 hPa 0,0 l/m 0,2 km/h (0 Bft) O 94 0 min 0,000 mm 58 W/m 14,9 C 25,2 C 3,2 km/h (1 Bft) 98 %
23.07.2014 20:20 24,9 C 24,9 C 25,2 C 54 % 1012,1 hPa 0,0 l/m 0,5 km/h (0 Bft) O-SO 104 0 min 0,000 mm 33 W/m 14,9 C 24,9 C 8,0 km/h (2 Bft) 97 %
23.07.2014 20:30 24,6 C 24,6 C 24,9 C 53 % 1012,2 hPa 0,0 l/m 0,0 km/h (0 Bft) O-NO 63 0 min 0,000 mm 26 W/m 14,4 C 24,6 C 1,6 km/h (1 Bft) 98 %
23.07.2014 20:40 24,2 C 24,2 C 24,6 C 56 % 1012,2 hPa 0,0 l/m 0,0 km/h (0 Bft) O-SO 123 0 min 0,000 mm 23 W/m 14,9 C 24,2 C 1,6 km/h (1 Bft) 97 %
23.07.2014 20:50 23,8 C 23,8 C 24,2 C 56 % 1012,2 hPa 0,0 l/m 0,0 km/h (0 Bft) O-SO 123 0 min 0,000 mm 16 W/m 14,5 C 23,8 C 0,0 km/h (0 Bft) 97 %
23.07.2014 21:00 23,5 C 23,5 C 23,8 C 57 % 1012,2 hPa 0,0 l/m 0,0 km/h (0 Bft) O-SO 123 0 min 0,025 mm 11 W/m 14,5 C 23,5 C 0,0 km/h (0 Bft) 98 %
23.07.2014 21:10 23,1 C 23,1 C 23,5 C 60 % 1012,2 hPa 0,0 l/m 0,0 km/h (0 Bft) N 0 0 min 0,000 mm 11 W/m 14,9 C 23,1 C 0,0 km/h (0 Bft) 100 %
23.07.2014 21:20 22,7 C 22,7 C 23,1 C 61 % 1012,3 hPa 0,0 l/m 0,0 km/h (0 Bft) N 0 0 min 0,000 mm 5 W/m 14,8 C 22,7 C 0,0 km/h (0 Bft) 100 %
23.07.2014 21:30 22,3 C 22,3 C 22,7 C 60 % 1012,3 hPa 0,0 l/m 0,0 km/h (0 Bft) N 0 0 min 0,000 mm 0 W/m 14,2 C 22,3 C 0,0 km/h (0 Bft) 100 %
23.07.2014 21:40 21,9 C 21,9 C 22,3 C 60 % 1012,4 hPa 0,0 l/m 0,0 km/h (0 Bft) N 0 0 min 0,000 mm 0 W/m 13,8 C 21,9 C 0,0 km/h (0 Bft) 100 %
23.07.2014 21:50 21,8 C 21,8 C 21,9 C 61 % 1012,5 hPa 0,0 l/m 0,0 km/h (0 Bft) N 0 0 min 0,000 mm 0 W/m 13,9 C 21,8 C 0,0 km/h (0 Bft) 99 %
23.07.2014 22:00 21,7 C 21,7 C 21,8 C 61 % 1012,5 hPa 0,0 l/m 0,0 km/h (0 Bft) N 0 0 min 0,000 mm 0 W/m 13,8 C 21,7 C 0,0 km/h (0 Bft) 100 %
23.07.2014 22:10 21,5 C 21,5 C 21,7 C 64 % 1012,5 hPa 0,0 l/m 0,0 km/h (0 Bft) N 0 0 min 0,000 mm 0 W/m 14,4 C 21,5 C 0,0 km/h (0 Bft) 100 %
23.07.2014 22:20 21,3 C 21,3 C 21,5 C 64 % 1012,6 hPa 0,0 l/m 0,0 km/h (0 Bft) N 0 0 min 0,000 mm 0 W/m 14,2 C 21,3 C 0,0 km/h (0 Bft) 100 %
23.07.2014 22:30 21,0 C 21,0 C 21,3 C 64 % 1012,7 hPa 0,0 l/m 0,0 km/h (0 Bft) N 0 0 min 0,000 mm 0 W/m 13,9 C 21,0 C 0,0 km/h (0 Bft) 100 %
23.07.2014 22:40 20,8 C 20,8 C 21,0 C 65 % 1012,7 hPa 0,0 l/m 0,0 km/h (0 Bft) N 0 0 min 0,000 mm 0 W/m 14,0 C 20,8 C 0,0 km/h (0 Bft) 100 %
23.07.2014 22:50 20,6 C 20,5 C 20,8 C 69 % 1012,7 hPa 0,0 l/m 0,0 km/h (0 Bft) N 0 0 min 0,000 mm 0 W/m 14,7 C 20,6 C 0,0 km/h (0 Bft) 100 %
23.07.2014 23:00 20,3 C 20,3 C 20,5 C 71 % 1012,7 hPa 0,0 l/m 0,0 km/h (0 Bft) N 0 0 min 0,025 mm 0 W/m 14,9 C 20,3 C 0,0 km/h (0 Bft) 100 %
23.07.2014 23:10 20,1 C 20,1 C 20,3 C 70 % 1012,7 hPa 0,0 l/m 0,0 km/h (0 Bft) N 0 0 min 0,000 mm 0 W/m 14,5 C 20,1 C 0,0 km/h (0 Bft) 100 %
23.07.2014 23:20 19,8 C 19,8 C 20,1 C 70 % 1012,6 hPa 0,0 l/m 0,0 km/h (0 Bft) O-SO 112 0 min 0,000 mm 0 W/m 14,2 C 19,8 C 1,6 km/h (1 Bft) 100 %
23.07.2014 23:30 19,7 C 19,7 C 19,8 C 68 % 1012,6 hPa 0,0 l/m 0,0 km/h (0 Bft) S-SW 202 0 min 0,000 mm 0 W/m 13,6 C 19,7 C 4,8 km/h (1 Bft) 100 %
23.07.2014 23:40 19,7 C 19,7 C 19,7 C 67 % 1012,5 hPa 0,0 l/m 0,0 km/h (0 Bft) SW 225 0 min 0,000 mm 0 W/m 13,4 C 19,7 C 1,6 km/h (1 Bft) 100 %
23.07.2014 23:50 19,6 C 19,6 C 19,7 C 67 % 1012,5 hPa 0,0 l/m 0,0 km/h (0 Bft) SW 225 0 min 0,000 mm 0 W/m 13,3 C 19,6 C 1,6 km/h (1 Bft) 100 %
_ Min-Zeit 05:30 05:30 05:50 16:10 18:10 - 00:00 - - - - - 23:50 05:30 00:00 04:00
Minimum _ 15,5 C 15,5 C 15,5 C 41 % 1012,0 hPa - 0,0 km/h (0 Bft) - - - - - 13,3 C 15,5 C 0,0 km/h (0 Bft) 91 %
_ Max-Zeit 15:50 15:50 15:50 01:40 00:00 00:00 14:40 - - 08:30 15:00 14:20 11:20 15:50 16:00 00:00
Maximum _ 28,7 C 28,6 C 28,7 C 87 % 1015,0 hPa 0,0 l/m 3,2 km/h
W-NW (1 Bft)
- - 10 min 0,508 mm 909 W/m 18,0 C 28,7 C 22,5 km/h
SO (4 Bft)
100 %
Durchschnitt _ 22,0 C 21,9 C 22,1 C 68 % 1013,7 hPa #0,0 l/m 0,5 km/h (0 Bft) O-NO - #9:00 h #3,784 mm 358 W/m 15,3 C 22,0 C 5,1 km/h (1 Bft) 99 %
PRIVATE WETTERSTATION BILLIGHEIM-ALLFELD - www.neckar-odenwald-wetter.de - Holger Sonntag